Location: Betpouey
(42.8833°N, 0.0333°E)
Time: 22:13:01
(UTC+00:00)

Cosmos 2237 Rocket - Pass Details

Date: 01 December 2020
Orbit: 833 x 851 km, 71.0° (Epoch: 18 January)

Event Time Altitude Azimuth Distance (km) Brightness Sun altitude
Rises 17:40:46 0° 251° (WSW) 3,375 7.4 -13.3°
Reaches altitude 10° 17:44:01 10° 270° (W) 2,447 5.9 -13.8°
Maximum altitude 17:47:45 18° 313° (NW) 1,949 4.5 -14.5°
Drops below altitude 10° 17:51:32 10° 355° (N) 2,462 4.5 -15.2°
Sets 17:54:50 0° 14° (NNE) 3,404 5.1 -15.7°
Enters shadow 17:54:53 - 14° (NNE) 3,417 5.1 -15.7°
